This demonstration page uses our WeatherBlox Daily Observations layout. Learn more.

Left ArrowRight Arrow

Hourly Observations for May 23, 2022

Temp ( °F °C ) Dew Point ( °F °C ) Humidity (%) Winds ( mph kmh ) Pressure ( in mb ) Visibility ( mi km ) Precip ( " mm )
12:53 am 00:53 Mostly Clear 54 12.2 40 4.4 59 59 ESE 8 13 30.25 1025 10 16 0.00 0.00
1:53 am 01:53 Mostly Clear 52 11.1 41 5 66 66 ESE 5 7 30.25 1024 10 16 0.00 0.00
2:53 am 02:53 Partly Cloudy 51 10.6 41 5 69 69 E 5 7 30.24 1024 10 16 0.00 0.00
3:53 am 03:53 Partly Cloudy 50 10 41 5 71 71 ESE 7 11 30.24 1024 10 16 0.00 0.00
4:53 am 04:53 Mostly Cloudy 50 10 41 5 71 71 NE 5 7 30.22 1023 10 16 0.00 0.00
5:53 am 05:53 Cloudy 51 10.6 42 5.6 71 71 NE 6 9 30.22 1023 10 16 0.00 0.00
6:53 am 06:53 Mostly Cloudy 52 11.1 41 5 66 66 E 7 11 30.21 1023 10 16 0.00 0.00
7:53 am 07:53 Mostly Cloudy 53 11.7 41 5 64 64 E 8 13 30.20 1023 10 16 0.00 0.00
9:53 am 09:53 Mostly Cloudy 57 13.9 44 6.7 62 62 E 14 22 30.18 1022 10 16 0.00 0.00
10:53 am 10:53 Mostly Cloudy 58 14.4 44 6.7 60 60 E 12 19 30.17 1022 10 16 0.00 0.00
11:53 am 11:53 Mostly Cloudy 61 16.1 45 7.2 56 56 E 15 24 30.15 1021 10 16 0.00 0.00
12:53 pm 12:53 Cloudy 60 15.6 44 6.7 56 56 ESE 12 19 30.12 1020 10 16 0.00 0.00
1:53 pm 13:53 Cloudy 60 15.6 44 6.7 56 56 ESE 10 17 30.12 1020 10 16 0.00 0.00
2:53 pm 14:53 Cloudy 61 16.1 45 7.2 56 56 SE 14 22 30.09 1019 10 16 0.00 0.00
3:53 pm 15:53 Mostly Cloudy 61 16.1 46 7.8 58 58 ESE 13 20 30.05 1018 10 16 0.00 0.00
4:53 pm 16:53 Cloudy 61 16.1 47 8.3 60 60 ESE 12 19 30.05 1018 10 16 0.00 0.00
5:53 pm 17:53 Cloudy 60 15.6 48 8.9 65 65 ESE 15 24 30.04 1017 10 16 0.00 0.00
6:32 pm 18:32 Cloudy 60 15.6 49 9.4 67 67 E 12 19 30.01 1016 10 16 0.00 0.00
6:53 pm 18:53 Cloudy 60 15.6 49 9.4 67 67 E 12 19 30.01 1016 10 16 0.00 0.00
7:53 pm 19:53 Cloudy 59 15 50 10 72 72 E 10 17 30.02 1017 10 16 0.00 0.00
8:53 pm 20:53 Cloudy with Mist and Fog 56 13.3 52 11.1 87 87 E 10 17 30.04 1017 6 10 0.00 0.00
9:39 pm 21:39 Cloudy with Light Rain 55 12.8 53 11.7 93 93 E 12 19 30.05 1018 6 10 0.06 1.52
9:53 pm 21:53 Cloudy with Light Rain 55 12.8 53 11.7 93 93 E 9 15 30.04 1017 6 10 0.06 1.52
10:10 pm 22:10 Cloudy with Light Rain 55 12.8 53 11.7 93 93 E 10 17 30.06 1018 8 13 0.00 0.00
10:23 pm 22:23 Cloudy with Light Rain 55 12.8 53 11.7 93 93 E 10 17 30.05 1018 8 13 0.00 0.00
10:53 pm 22:53 Cloudy 55 12.8 52 11.1 90 90 ENE 8 13 30.05 1018 10 16 0.00 0.00
11:53 pm 23:53 Cloudy with Rain 54 12.2 52 11.1 93 93 ENE 12 19 30.03 1017 3 5 0.26 6.60

Powered by AerisWeather